Weather in Monchengladbach

Germany     51°11′27″N   6°26′32″E
temp.,
°C
wind,
m/s
gust,
m/s
humid.,
%
clouds,
%
prec.,
mm/h
press.,
hPa
HPBL,
m
16 september, thu
thu1623:00+16nw588545 0.1 1014469
02:00+16wnw4674100 0.1 1015665
05:00+12w379629 0.0 1016247
08:00+13w4793100 0.0 1016343
11:00+15w4785100 0.1 1017527
14:00+19nw466296 0.1 10171319
17:00+20nw455419 0.0 10171454
20:00+16nw247317 0.0 101779
17 september, fri
fri1723:00+14wnw238326 0.0 101845
02:00+13w22890 0.0 101836
05:00+12w12906 0.0 101726
08:00+13ssw228699 0.0 101771
11:00+15ssw1177100 0.0 1017184
14:00+18wsw1166100 0.0 1016450
17:00+19n1259100 0.0 1015800
20:00+16nne227298 0.0 101517
18 september, sat
sat1823:00+15ene2380100 0.0 101546
02:00+14e1182100 0.0 101514
05:00+13e118599 0.0 101513
08:00+13e22865 0.0 101633
11:00+18e22660 0.0 1016569
14:00+21ne22525 0.0 10151354
17:00+22ne334410 0.0 10141693
20:00+17ene48610 0.0 1015191
19 september, sun
sun1923:00+15ene36780 0.0 1015125
02:00+14ene35820 0.0 101596
05:00+13ene358321 0.0 101487
08:00+13ene358260 0.0 1015117
11:00+18e346192 0.0 1016682
14:00+21ene3449100 0.0 10161899
17:00+19ene235698 0.0 1016349
20:00+19e2348100 0.0 101785
20 september, mon
mon2023:00+15ese48591 0.0 1019208
02:00+13e24660 0.0 101989
05:00+12e33710 0.0 102066
08:00+12ene34755 0.0 102192
11:00+17ese45565 0.0 1021631
14:00+21se34435 0.0 10211800
17:00+20ene4546100 0.0 10201042
20:00+18ese3651100 0.0 1022244